Weather History for Central Park, NY

Change the Weather History Date:

Tuesday, January 22, 2013

  Actual Average Record
Temperature  
Mean Temperature 20 °F 32 °F  
Max Temperature 27 °F 38 °F 61 °F (1959)
Min Temperature 13 °F 27 °F 0 °F (1888)
Degree Days  
Heating Degree Days 45 33  
Month to date heating degree days 605 717  
Since 1 July heating degree days 2195 2402  
Cooling Degree Days 0 0  
Month to date cooling degree days 0 0  
Year to date cooling degree days 0 0  
Moisture  
Dew Point 0 °F    
Average Humidity 43    
Maximum Humidity 58    
Minimum Humidity 28    
Precipitation  
Precipitation T in 0.12 in 1.70 in (1949)
Month to date precipitation 1.47 2.65  
Year to date precipitation 1.47 2.65  
Snow  
Snow T in 0.20 in 8.50 in (2005)
Month to date snowfall T 4.8  
Since 1 July snowfall 5.1 9.9  
Snow Depth 0.00 in    
Sea Level Pressure  
Sea Level Pressure 30.03 in    
Wind  
Wind Speed 11 mph (WNW)    
Max Wind Speed 20 mph    
Max Gust Speed 29 mph    
Visibility 10 miles    
Events      
T = Trace of Precipitation, MM = Missing Value Source: NWS Daily Summary

Daily Weather History Graph

Daily Weather History Graph

Search for Another Location

Airport:

Trip Planner

Search our weather history database for the weather conditions in past years. The results will help you decide how hot, cold, wet, or windy it might be!

Date:

Astronomy

Jan. 22, 2013 Rise Set
Actual Time 7:14 AM EST 5:01 PM EST
Civil Twilight 6:44 AM EST 5:31 PM EST
Nautical Twilight 6:11 AM EST 6:04 PM EST
Astronomical Twilight 5:38 AM EST 6:37 PM EST
Moon 1:22 PM EST (1/22) 3:33 AM EST (1/22)
Length of Visible Light 10h 46m
Length of Day
9h 47m
Waxing Gibbous, 82% of the Moon is Illuminated
Jan 22
Waxing Gibbous
Jan 26
Full
Feb 3
Last Quarter
Feb 10
New
Feb 17
First Quarter

Hourly Weather History & Observations

Time (EST) Temp. Windchill Dew Point Humidity Pressure Visibility Wind Dir Wind Speed Gust Speed Precip Events Conditions
12:51 AM 26.1 °F 17.6 °F 10.9 °F 53% 29.83 in 10.0 mi NW 8.1 mph - N/A   Partly Cloudy
1:51 AM 25.0 °F 14.8 °F 6.1 °F 45% 29.85 in 10.0 mi WNW 10.4 mph 26.5 mph N/A   Clear
2:51 AM 24.1 °F 15.2 °F 3.9 °F 42% 29.86 in 10.0 mi WNW 8.1 mph 19.6 mph N/A   Scattered Clouds
3:51 AM 23.0 °F 12.4 °F 3.9 °F 44% 29.87 in 10.0 mi WNW 10.4 mph 17.3 mph N/A   Clear
4:51 AM 21.9 °F 13.4 °F 3.9 °F 46% 29.90 in 10.0 mi Variable 6.9 mph - N/A   Mostly Cloudy
5:51 AM 21.0 °F 9.9 °F 8.1 °F 57% 29.94 in 10.0 mi West 10.4 mph 23.0 mph N/A   Overcast
6:51 AM 19.9 °F 9.3 °F 6.1 °F 55% 29.97 in 10.0 mi NW 9.2 mph 18.4 mph N/A   Mostly Cloudy
7:51 AM 19.0 °F 6.8 °F 3.0 °F 50% 29.99 in 10.0 mi NW 11.5 mph 23.0 mph N/A   Clear
8:51 AM 19.0 °F - 3.9 °F 52% 30.02 in 10.0 mi North - - N/A   Overcast
9:51 AM 19.0 °F 6.1 °F 7.0 °F 59% 30.04 in 7.0 mi WNW 12.7 mph 23.0 mph N/A   Mostly Cloudy
10:51 AM 19.0 °F 6.8 °F -2.9 °F 38% 30.04 in 10.0 mi WNW 11.5 mph 23.0 mph N/A   Partly Cloudy
11:51 AM 21.0 °F 8.6 °F -4.0 °F 33% 30.02 in 10.0 mi WNW 12.7 mph 23.0 mph N/A   Mostly Cloudy
12:51 PM 21.0 °F 12.4 °F -5.1 °F 32% 30.01 in 10.0 mi Variable 6.9 mph 18.4 mph N/A   Clear
1:51 PM 21.0 °F 7.6 °F -8.0 °F 28% 30.01 in 10.0 mi WNW 15.0 mph 25.3 mph N/A   Clear
2:51 PM 19.9 °F 6.2 °F -5.1 °F 33% 30.01 in 10.0 mi West 15.0 mph 20.7 mph N/A   Clear
3:51 PM 19.0 °F 7.5 °F -5.1 °F 34% 30.04 in 10.0 mi WNW 10.4 mph 27.6 mph N/A   Partly Cloudy
4:51 PM 18.0 °F 3.1 °F -4.0 °F 38% 30.08 in 10.0 mi WNW 16.1 mph 28.8 mph N/A   Scattered Clouds
5:51 PM 18.0 °F 7.7 °F -2.0 °F 41% 30.12 in 10.0 mi NW 8.1 mph 19.6 mph N/A   Clear
6:51 PM 17.1 °F 10.0 °F -0.9 °F 45% 30.14 in 10.0 mi Variable 4.6 mph 18.4 mph N/A   Clear
7:51 PM 16.0 °F 2.9 °F 1.0 °F 52% 30.16 in 10.0 mi WNW 11.5 mph 17.3 mph N/A   Clear
8:51 PM 16.0 °F 3.6 °F -0.0 °F 49% 30.17 in 10.0 mi WNW 10.4 mph 19.6 mph N/A   Overcast
9:51 PM 15.1 °F 1.8 °F -6.0 °F 39% 30.19 in 10.0 mi WNW 11.5 mph 27.6 mph N/A   Partly Cloudy
10:51 PM 14.0 °F 0.5 °F -7.1 °F 39% 30.20 in 10.0 mi NW 11.5 mph 19.6 mph N/A   Clear
11:51 PM 12.9 °F -0.2 °F -8.0 °F 39% 30.19 in 10.0 mi West 10.4 mph 20.7 mph N/A   Clear